Location: Krasnoyarskiy Pitomnik
(51.1333°N, 71.6167°E)
Time: 18:43:27
(UTC+00:00)

Envisat - Pass Details

Date: 07 March 2024
Orbit: 762 x 764 km, 98.3° (Epoch: 13 April)

Event Time Altitude Azimuth Distance (km) Brightness Sun altitude
Rises 21:36:27 0° 24° (NNE) 3,242 7.1 -36.1°
Reaches altitude 10° 21:39:16 10° 40° (NE) 2,310 6.2 -35.8°
Enters shadow 21:43:10 22° 90° (E) 1,620 5.0 -35.4°
